Tiempo cada hora Murray

Hoy, 22 Octubre, Jueves

Tiempo Temperatura Precipitaciones Viento Presión Humedad
00:00 +12°C° 0 mm 3 mps 645 mmHg 61%
01:00 +11°C° 0 mm 3 mps 646 mmHg 65%
02:00 +10°C° 0 mm 3 mps 646 mmHg 69%
03:00 +9°C° 0 mm 3 mps 646 mmHg 67%
04:00 +8°C° 0 mm 3 mps 646 mmHg 66%
05:00 +8°C° 0 mm 3 mps 647 mmHg 65%
06:00 +7°C° 0 mm 3 mps 647 mmHg 60%
07:00 +7°C° 0 mm 3 mps 648 mmHg 56%
08:00 +7°C° 0 mm 3 mps 648 mmHg 51%
09:00 +8°C° 0 mm 3 mps 649 mmHg 47%
10:00 +9°C° 0 mm 3 mps 649 mmHg 43%
11:00 +10°C° 0 mm 4 mps 649 mmHg 39%
12:00 +10°C° 0 mm 4 mps 649 mmHg 36%
13:00 +10°C° 0 mm 4 mps 649 mmHg 34%
14:00 +11°C° 0 mm 4 mps 648 mmHg 31%
15:00 +10°C° 0 mm 4 mps 649 mmHg 31%
16:00 +9°C° 0 mm 3 mps 649 mmHg 31%
17:00 +8°C° 0 mm 3 mps 649 mmHg 32%
18:00 +7°C° 0 mm 2 mps 650 mmHg 34%
19:00 +7°C° 0 mm 1 mps 650 mmHg 35%
20:00 +5°C° 0 mm 1 mps 651 mmHg 37%
21:00 +5°C° 0 mm 1 mps 651 mmHg 38%
22:00 +5°C° 0 mm 1 mps 652 mmHg 38%
23:00 +5°C° 0 mm 1 mps 652 mmHg 38%

Mañana, 23 Octubre, Viernes

Tiempo Temperatura Precipitaciones Viento Presión Humedad
00:00 +4°C° 0 mm 0 mps 652 mmHg 40%
01:00 +4°C° 0 mm 0 mps 652 mmHg 41%
02:00 +3°C° 0 mm 0 mps 652 mmHg 42%
03:00 +3°C° 0 mm 0 mps 652 mmHg 42%
04:00 +3°C° 0 mm 0 mps 651 mmHg 43%
05:00 +3°C° 0 mm 0 mps 651 mmHg 44%
06:00 +4°C° 0 mm 0 mps 652 mmHg 42%
07:00 +5°C° 0 mm 0 mps 652 mmHg 40%
08:00 +6°C° 0 mm 0 mps 653 mmHg 38%
09:00 +7°C° 0 mm 0 mps 652 mmHg 35%
10:00 +9°C° 0 mm 1 mps 652 mmHg 31%
11:00 +10°C° 0 mm 1 mps 651 mmHg 28%
12:00 +12°C° 0 mm 1 mps 651 mmHg 26%
13:00 +13°C° 0 mm 1 mps 650 mmHg 23%
14:00 +14°C° 0 mm 1 mps 650 mmHg 21%
15:00 +13°C° 0 mm 1 mps 649 mmHg 24%
16:00 +13°C° 0 mm 1 mps 648 mmHg 26%
17:00 +12°C° 0 mm 1 mps 648 mmHg 28%
18:00 +11°C° 0 mm 1 mps 647 mmHg 31%
19:00 +10°C° 0 mm 1 mps 647 mmHg 34%
20:00 +7°C° 0 mm 0 mps 647 mmHg 36%
21:00 +8°C° 0 mm 1 mps 647 mmHg 35%
22:00 +9°C° 0 mm 1 mps 647 mmHg 34%
23:00 +9°C° 0 mm 1 mps 647 mmHg 33%

Pasado mañana, 24 Octubre, Sábado

Tiempo Temperatura Precipitaciones Viento Presión Humedad
00:00 +9°C° 0 mm 1 mps 647 mmHg 34%
01:00 +9°C° 0 mm 1 mps 646 mmHg 35%
02:00 +8°C° 0 mm 1 mps 646 mmHg 36%
03:00 +8°C° 0 mm 1 mps 646 mmHg 37%
04:00 +8°C° 0 mm 1 mps 646 mmHg 38%
05:00 +8°C° 0 mm 1 mps 645 mmHg 38%
06:00 +8°C° 0 mm 2 mps 646 mmHg 37%
07:00 +9°C° 0 mm 2 mps 646 mmHg 35%
08:00 +10°C° 0 mm 2 mps 646 mmHg 34%
09:00 +12°C° 0 mm 3 mps 646 mmHg 30%
10:00 +14°C° 0 mm 3 mps 646 mmHg 26%
11:00 +18°C° 0 mm 4 mps 646 mmHg 23%
12:00 +18°C° 0 mm 4 mps 645 mmHg 23%
13:00 +19°C° 0 mm 5 mps 644 mmHg 23%
14:00 +19°C° 0 mm 6 mps 644 mmHg 23%
15:00 +17°C° 0 mm 5 mps 643 mmHg 30%
16:00 +15°C° 0 mm 5 mps 643 mmHg 38%
17:00 +13°C° 0 mm 4 mps 642 mmHg 45%
18:00 +12°C° 0 mm 4 mps 642 mmHg 54%
19:00 +11°C° 0 mm 3 mps 643 mmHg 63%
20:00 +10°C° 0 mm 3 mps 643 mmHg 72%
21:00 +9°C° 0 mm 3 mps 644 mmHg 71%
22:00 +8°C° 0 mm 3 mps 644 mmHg 69%
23:00 +7°C° 0 mm 3 mps 645 mmHg 68%

, 25 Octubre, Domingo

Tiempo Temperatura Precipitaciones Viento Presión Humedad
00:00 +5°C° 0 mm 3 mps 645 mmHg 66%
01:00 +4°C° 0 mm 3 mps 646 mmHg 64%
02:00 +3°C° 0 mm 3 mps 646 mmHg 62%
03:00 +3°C° 0 mm 3 mps 646 mmHg 64%
04:00 +2°C° 0 mm 3 mps 647 mmHg 66%
05:00 +3°C° 0 mm 2 mps 647 mmHg 68%
06:00 +1°C° 0 mm 3 mps 648 mmHg 71%
07:00 0°C° 0 mm 3 mps 648 mmHg 74%
08:00 0°C° 0 mm 3 mps 649 mmHg 77%
09:00 0°C° 0 mm 3 mps 649 mmHg 69%
10:00 +1°C° 0 mm 3 mps 649 mmHg 61%
11:00 +2°C° 0 mm 3 mps 649 mmHg 53%
12:00 +2°C° 0 mm 3 mps 649 mmHg 49%
13:00 +3°C° 0 mm 4 mps 649 mmHg 45%
14:00 +3°C° 0 mm 4 mps 649 mmHg 40%
15:00 +1°C° 0 mm 4 mps 649 mmHg 40%
16:00 0°C° 0 mm 4 mps 649 mmHg 39%
17:00 -1°C° 0 mm 4 mps 650 mmHg 38%
18:00 -2°C° 0 mm 4 mps 650 mmHg 41%
19:00 -4°C° 0 mm 4 mps 650 mmHg 43%
20:00 -5°C° 0 mm 3 mps 651 mmHg 45%
21:00 -6°C° 0 mm 3 mps 651 mmHg 47%
22:00 -6°C° 0 mm 3 mps 651 mmHg 48%
23:00 -7°C° 0 mm 3 mps 651 mmHg 49%

25 Octubre, Domingo

Tiempo Temperatura Precipitaciones Viento Presión Humedad
00:00 +5°C° 0 mm 3 mps 645 mmHg 66%
01:00 +4°C° 0 mm 3 mps 646 mmHg 64%
02:00 +3°C° 0 mm 3 mps 646 mmHg 62%
03:00 +3°C° 0 mm 3 mps 646 mmHg 64%
04:00 +2°C° 0 mm 3 mps 647 mmHg 66%
05:00 +3°C° 0 mm 2 mps 647 mmHg 68%
06:00 +1°C° 0 mm 3 mps 648 mmHg 71%
07:00 0°C° 0 mm 3 mps 648 mmHg 74%
08:00 0°C° 0 mm 3 mps 649 mmHg 77%
09:00 0°C° 0 mm 3 mps 649 mmHg 69%
10:00 +1°C° 0 mm 3 mps 649 mmHg 61%
11:00 +2°C° 0 mm 3 mps 649 mmHg 53%
12:00 +2°C° 0 mm 3 mps 649 mmHg 49%
13:00 +3°C° 0 mm 4 mps 649 mmHg 45%
14:00 +3°C° 0 mm 4 mps 649 mmHg 40%
15:00 +1°C° 0 mm 4 mps 649 mmHg 40%
16:00 0°C° 0 mm 4 mps 649 mmHg 39%
17:00 -1°C° 0 mm 4 mps 650 mmHg 38%
18:00 -2°C° 0 mm 4 mps 650 mmHg 41%
19:00 -4°C° 0 mm 4 mps 650 mmHg 43%
20:00 -5°C° 0 mm 3 mps 651 mmHg 45%
21:00 -6°C° 0 mm 3 mps 651 mmHg 47%
22:00 -6°C° 0 mm 3 mps 651 mmHg 48%
23:00 -7°C° 0 mm 3 mps 651 mmHg 49%

26 Octubre, Lunes

Tiempo Temperatura Precipitaciones Viento Presión Humedad
00:00 -7°C° 0 mm 3 mps 651 mmHg 49%
01:00 -8°C° 0 mm 3 mps 652 mmHg 49%
02:00 -8°C° 0 mm 3 mps 652 mmHg 49%
03:00 -9°C° 0 mm 3 mps 652 mmHg 50%
04:00 -9°C° 0 mm 3 mps 652 mmHg 51%
05:00 -10°C° 0 mm 3 mps 652 mmHg 52%
06:00 -9°C° 0 mm 3 mps 652 mmHg 49%
07:00 -9°C° 0 mm 3 mps 653 mmHg 46%
08:00 -8°C° 0 mm 3 mps 653 mmHg 42%
09:00 -6°C° 0 mm 3 mps 653 mmHg 35%
10:00 -2°C° 0 mm 3 mps 653 mmHg 28%
11:00 0°C° 0 mm 3 mps 652 mmHg 21%
12:00 0°C° 0 mm 4 mps 652 mmHg 21%
13:00 0°C° 0 mm 4 mps 651 mmHg 21%
14:00 +1°C° 0 mm 4 mps 651 mmHg 20%
15:00 +1°C° 0 mm 4 mps 650 mmHg 24%
16:00 +1°C° 0 mm 3 mps 650 mmHg 27%
17:00 0°C° 0 mm 3 mps 650 mmHg 31%
18:00 -1°C° 0 mm 2 mps 650 mmHg 33%
19:00 -2°C° 0 mm 2 mps 651 mmHg 35%
20:00 -1°C° 0 mm 1 mps 651 mmHg 37%
21:00 -1°C° 0 mm 1 mps 651 mmHg 37%
22:00 -1°C° 0 mm 1 mps 651 mmHg 37%
23:00 -1°C° 0 mm 1 mps 652 mmHg 37%

27 Octubre, Martes

Tiempo Temperatura Precipitaciones Viento Presión Humedad
00:00 -2°C° 0 mm 1 mps 652 mmHg 40%
01:00 -2°C° 0 mm 1 mps 652 mmHg 42%
02:00 -2°C° 0 mm 1 mps 652 mmHg 44%
03:00 -3°C° 0 mm 1 mps 652 mmHg 45%
04:00 -4°C° 0 mm 0 mps 652 mmHg 46%
05:00 -4°C° 0 mm 0 mps 652 mmHg 47%
06:00 -3°C° 0 mm 0 mps 653 mmHg 44%
07:00 -1°C° 0 mm 1 mps 654 mmHg 41%
08:00 0°C° 0 mm 1 mps 655 mmHg 38%
09:00 +2°C° 0 mm 1 mps 655 mmHg 35%
10:00 +4°C° 0 mm 1 mps 655 mmHg 31%
11:00 +6°C° 0 mm 1 mps 655 mmHg 27%
12:00 +6°C° 0 mm 2 mps 654 mmHg 26%
13:00 +6°C° 0 mm 2 mps 654 mmHg 26%
14:00 +7°C° 0 mm 3 mps 653 mmHg 25%
15:00 +6°C° 0 mm 2 mps 653 mmHg 27%
16:00 +6°C° 0 mm 2 mps 653 mmHg 29%
17:00 +6°C° 0 mm 1 mps 652 mmHg 32%
18:00 +5°C° 0 mm 1 mps 653 mmHg 34%
19:00 +4°C° 0 mm 1 mps 653 mmHg 36%
20:00 +2°C° 0 mm 0 mps 653 mmHg 38%
21:00 +2°C° 0 mm 0 mps 654 mmHg 38%
22:00 +3°C° 0 mm 1 mps 654 mmHg 38%
23:00 +3°C° 0 mm 1 mps 654 mmHg 38%
Mostrar más

Necesitamos Su Consentimiento

Meteoprog y nuestros Proveedores de Servicios pueden almacenar y acceder a sus datos personales como cookies, identificadores de dispositivo u otras tecnologías similares de su dispositivo y procesar dichos datos para personalizar contenido y anuncios, además de ofrecer funciones de redes sociales y analizar el tráfico.

  • Almacenar y/o acceder a información en su dispositivo

    Se puede almacenar o acceder a cookies, identificadores de dispositivo u otra información de su dispositivo para los fines anteriormente indicados.

  • Anuncios y contenido personalizados, medición de anuncios y contenido, percepciones del público, y desarrollo de productos

    Los anuncios y el contenido pueden personalizarse en base a su perfil. Se pueden añadir más datos para personalizar mejor los anuncios y contenidos. Se puede medir el rendimiento de los anuncios y contenidos. Se puede obtener la percepción sobre el público que ha visto los anuncios y contenidos. Dichos datos pueden usarse para desarrollar o mejorar la experiencia del usuario, sistemas y software.

Al hacer clic en ‘Estoy De Acuerdo’ usted permitirá el uso de las cookies, identificadores de dispositivo, balizas web u otras tecnologías similares indicadas. Su configuración puede cambiarse desde el navegador de su dispositivo.

Para ciertos fines, los intereses legítimos pueden ser considerados por encima del consentimiento. Puede leer más sobre ello en nuestra Política de Privacidad y Cookies.